Вернуться в каталог

STARLINK-35629

АктивенСвязьVLEO
NORAD 66127·PAYLOAD·🇺🇸 United States

Запущен Oct 22, 2025 с Vandenberg Space Force Base

Loading…

Ближайшие Пролёты (ближайшие 24 часа)

TLE

СвежийSource: CelesTrak SupGP

Эпоха: Sep 14, 2026, 15:32 UTC

1 66127C 25237P   26257.64770833 -.00024234  00000+0 -71625-3 0  2578
2 66127  53.1583 240.7700 0001331  90.9326  37.8486 15.34391914    13

Отслеживайте STARLINK-35629 в реальном времени с AllMySat

Download on the App Store